Location: Hrubieszów
(50.8077°N, 23.8873°E)
Time: 05:28:07
(UTC+02:00)

ISS - Visible Passes

Search period start: 28 May 2018 00:00
Search period end: 07 June 2018 00:00
Orbit: 402 x 407 km, 51.6° (Epoch: 28 May)

Date Brightness Start Highest point End Pass type
(mag) Time Alt. Az. Time Alt. Az. Time Alt. Az.
28 May -3.7 21:02:59 10° W 21:06:17 79° N 21:09:33 10° E visible
28 May -3.9 22:39:33 10° WNW 22:42:50 88° SSW 22:45:05 19° ESE visible
29 May -2.1 00:16:12 10° W 00:17:42 21° WSW 00:17:42 21° WSW visible
29 May -3.7 21:47:18 10° W 21:50:36 79° N 21:53:52 10° E visible
29 May -3.5 23:23:51 10° W 23:26:59 43° SSW 23:27:05 42° SSW visible
30 May -3.8 22:31:34 10° WNW 22:34:49 62° SSW 22:36:30 25° SE visible
31 May -1.3 00:08:42 10° W 00:09:08 12° WSW 00:09:08 12° WSW visible
31 May -3.9 21:39:18 10° WNW 21:42:35 82° SSW 21:45:52 10° ESE visible
31 May -2.5 23:16:03 10° W 23:18:34 25° SW 23:18:34 25° SW visible
01 Jun -3.1 22:23:36 10° W 22:26:40 37° SSW 22:28:02 24° SSE visible
02 Jun -3.6 21:31:16 10° W 21:34:28 54° SSW 21:37:31 11° SE visible
02 Jun -1.6 23:08:40 10° WSW 23:10:09 14° SW 23:10:09 14° SW visible
03 Jun -2.2 22:15:47 10° W 22:18:21 21° SW 22:19:40 17° S visible
04 Jun -2.7 21:23:14 10° W 21:26:13 32° SSW 21:29:10 10° SE visible
05 Jun -1.4 22:08:40 10° WSW 22:09:52 12° SW 22:11:05 10° SSW visible
06 Jun -1.8 21:15:27 10° W 21:17:48 18° SW 21:20:09 10° S visible
